sat.trackr.live / text

‹ back to catalog

STARLINK-11381 [DTC]

NORAD 62094 · 2024-220G

PAYLOAD ACTIVE UNKNOWN

§ Identity

Operator
Country
US
Launch date
2024-11-25
Launch site
AFETR
Launch vehicle
Mass (kg)
RCS (m²)

Purposes: comms

External: N2YO · Heavens-Above · Gunter

§ Orbital elements

Epoch: 2026-09-20T19:47:10.350240Z

Period
91.67 min
Inclination
42.9992°
Eccentricity
0.0001809
Mean motion
15.70911197 rev/d
Perigee alt
355.1 km
Apogee alt
357.5 km
Semi-major
6,734.4 km
B*
9.8741e-4
RAAN
306.7914°
Arg perigee
285.3289°
Mean anomaly
74.7378°
Rev number
10,564

§ Raw data

STARLINK-11381 [DTC]1 62094U 24220G   26263.82442535  .00128615  00000+0  98741-3 0  99972 62094  42.9992 306.7914 0001809 285.3289  74.7378 15.70911197105646

JSON: /api/v1/satellites/62094 · /tle

For live sub-satellite position, see the globe view (requires WebGL).

§ Visibility from observer

Set your observer location to see the next 7 days of passes ≥ 10°. The values pass through the URL so the page stays shareable.

No JS? Fill the form by hand. The geolocation button needs JavaScript.